Location: Marysville Observatory
(48.1092°N, 122.1645°W)
Time: 22:21:53
(UTC-07:00)

Amateur Radio Satellites - All Passes

Search period start: 25 March 2017 21:51
Search period end: 26 March 2017 21:51
Location: Marysville Observatory, 48.1092°N, 122.1645°W

Satellite Date Start Highest point End Downlink Frequencies (MHz)
Time Altitude Azimuth
STRAND 1 25 Mar 21:57:31 22:01:50 28° 298° (WNW) 22:06:06 437.568
AO-85 25 Mar 22:02:52 22:07:12 68° 126° (SE) 22:11:17 145.980
ISS 25 Mar 22:15:42 22:18:49 44° 148° (SSE) 22:21:58 437.550
UWE-3 25 Mar 22:16:38 22:18:31 12° 273° (W) 22:20:24 435.000/436.395/437.385
Tancredo 1 25 Mar 22:19:29 22:22:33 50° 150° (SSE) 22:25:39 437.200
FO-29 25 Mar 22:21:30 22:24:55 15° 83° (E) 22:28:08 435.910
PRISM 25 Mar 22:24:10 22:28:02 36° 98° (E) 22:31:53 437.425
DELFI C3 25 Mar 22:45:25 22:48:45 26° 265° (W) 22:52:07 145.870
TIGRISAT 25 Mar 22:47:53 22:51:54 32° 95° (E) 22:55:48 435.000
UNISAT 6 25 Mar 22:57:39 23:01:55 43° 98° (E) 23:06:04 437.425
LO-87 25 Mar 22:59:36 23:03:09 58° 73° (ENE) 23:06:45 145.935 - 145.965
VELOX 1 25 Mar 23:06:56 23:09:40 16° 59° (ENE) 23:12:23 145.980
SO-50 25 Mar 23:09:01 23:13:19 40° 42° (NE) 23:17:33 436.795
BEESAT 3 25 Mar 23:15:35 23:19:17 41° 121° (ESE) 23:23:04 437.485
ESTCUBE 1 25 Mar 23:25:28 23:29:52 63° 72° (ENE) 23:34:20 437.505/2401.250
BEESAT 2 25 Mar 23:29:59 23:33:15 25° 116° (ESE) 23:36:34 435.950
RS-15 25 Mar 23:33:23 23:44:46 48° 249° (WSW) 23:55:43 29.354- 29.394
EO-79 25 Mar 23:39:36 23:40:29 11° 87° (E) 23:41:24 145.935-145.965
AIST 2D 25 Mar 23:40:34 23:42:50 16° 91° (E) 23:45:04 435.315
AO-85 25 Mar 23:44:41 23:47:58 21° 324° (NW) 23:51:08 145.980
ISS 25 Mar 23:52:03 23:55:17 54° 347° (NNW) 23:58:32 437.550
SPROUT 25 Mar 23:55:24 23:59:20 36° 68° (ENE) 00:03:18 437.525
Tancredo 1 25 Mar 23:55:37 23:58:44 49° 349° (N) 00:01:51 437.200
PRISM 25 Mar 23:59:45 00:03:10 25° 295° (WNW) 00:06:34 437.425
50 SAT 26 Mar 00:00:19 00:03:13 25° 67° (ENE) 00:06:08 437.505
FO-29 26 Mar 00:04:50 00:11:07 88° 282° (WNW) 00:16:40 435.910
POLYITAN 1 26 Mar 00:05:36 00:08:46 20° 92° (E) 00:11:54 437.675
QB50P2 26 Mar 00:09:59 00:13:26 24° 94° (E) 00:16:52 145.880/145.840
DX 1 26 Mar 00:21:06 00:25:02 35° 67° (ENE) 00:29:01 434.975-435.025
DUCHIFAT 1 26 Mar 00:23:15 00:26:46 25° 94° (E) 00:30:15 145.980
TIGRISAT 26 Mar 00:24:38 00:28:32 30° 294° (WNW) 00:32:20 435.000
UNISAT 6 26 Mar 00:34:51 00:38:24 23° 297° (WNW) 00:41:52 437.425
LO-87 26 Mar 00:35:40 00:36:59 12° 271° (W) 00:38:19 145.935 - 145.965
VELOX 1 26 Mar 00:41:13 00:45:36 69° 257° (WSW) 00:50:03 145.980
BUGSAT 1 26 Mar 00:43:08 00:45:31 15° 89° (E) 00:47:52 437.445
SO-50 26 Mar 00:49:40 00:53:42 33° 242° (WSW) 00:57:43 436.795
BEESAT 3 26 Mar 00:53:34 00:57:01 28° 320° (NW) 01:00:32 437.485
UKube-1 26 Mar 01:02:15 01:06:31 64° 72° (ENE) 01:10:48 .
ESTCUBE 1 26 Mar 01:04:22 01:07:06 16° 270° (W) 01:09:52 437.505/2401.250
BEESAT 2 26 Mar 01:07:03 01:10:51 42° 315° (NW) 01:14:43 435.950
NANOSAT C BR1 26 Mar 01:08:28 01:12:44 80° 104° (ESE) 01:16:56 145.865
EO-79 26 Mar 01:12:36 01:16:53 85° 282° (WNW) 01:21:06 145.935-145.965
AIST 2D 26 Mar 01:12:58 01:16:14 37° 289° (WNW) 01:19:28 435.315
Oscar 19 26 Mar 01:22:23 01:25:08 14° 88° (E) 01:27:53 437.125/150
ISS 26 Mar 01:28:54 01:32:05 45° 7° (N) 01:35:18 437.550
SPROUT 26 Mar 01:31:45 01:35:20 25° 266° (W) 01:38:57 437.525
Tancredo 1 26 Mar 01:32:06 01:35:12 46° 9° (N) 01:38:19 437.200
Gurwin Techsat 1B 26 Mar 01:33:23 01:33:48 10° 84° (E) 01:34:13 435.225
50 SAT 26 Mar 01:33:26 01:36:15 23° 265° (W) 01:39:05 437.505
POLYITAN 1 26 Mar 01:40:43 01:44:47 44° 290° (WNW) 01:48:47 437.675
QB50P2 26 Mar 01:45:24 01:49:21 37° 291° (WNW) 01:53:15 145.880/145.840
O/OREOS (USA 219) 26 Mar 01:51:04 01:54:34 21° 48° (NE) 01:58:03 437.305
FO-29 26 Mar 01:51:08 01:55:11 18° 309° (NW) 01:58:59 435.910
DX 1 26 Mar 01:57:35 02:01:17 27° 265° (W) 02:05:02 434.975-435.025
DUCHIFAT 1 26 Mar 01:58:40 02:02:31 35° 292° (WNW) 02:06:20 145.980
BUGSAT 1 26 Mar 02:17:08 02:21:18 61° 288° (WNW) 02:25:23 437.445
BEESAT 26 Mar 02:28:31 02:33:02 43° 68° (ENE) 02:37:33 436.000
UKube-1 26 Mar 02:40:31 02:42:58 15° 270° (W) 02:45:27 .
ITUPSAT 1 26 Mar 02:44:06 02:48:48 58° 71° (ENE) 02:53:31 437.325
NANOSAT C BR1 26 Mar 02:45:49 02:47:50 13° 302° (WNW) 02:49:51 145.865
BEESAT 2 26 Mar 02:48:08 02:49:40 12° 337° (NNW) 02:51:13 435.950
EO-79 26 Mar 02:50:32 02:51:56 11° 303° (WNW) 02:53:20 145.935-145.965
MOZHAYETS 4 26 Mar 02:51:29 02:55:28 30° 66° (ENE) 02:59:28
AO-7 26 Mar 02:57:53 03:01:30 13° 83° (E) 03:05:06 .
Oscar 19 26 Mar 02:59:56 03:05:08 86° 287° (WNW) 03:10:20 437.125/150
ISS 26 Mar 03:05:25 03:08:43 71° 207° (SSW) 03:12:00 437.550
ITAMSAT 1 26 Mar 03:08:15 03:10:39 13° 87° (E) 03:13:02 435.822/435.867
Tancredo 1 26 Mar 03:08:17 03:11:26 61° 209° (SSW) 03:14:37 437.200
Gurwin Techsat 1B 26 Mar 03:09:23 03:14:44 70° 103° (ESE) 03:20:02 435.225
O/OREOS (USA 219) 26 Mar 03:29:50 03:34:25 63° 248° (WSW) 03:38:58 437.305
CUBESAT XI-V 26 Mar 03:42:59 03:46:12 19° 61° (ENE) 03:49:26 437.345
BEESAT 26 Mar 04:07:00 04:10:58 26° 266° (W) 04:14:58 436.000
KKS-1 26 Mar 04:13:10 04:17:25 45° 69° (ENE) 04:21:43 437.445
ITUPSAT 1 26 Mar 04:23:36 04:27:00 19° 269° (W) 04:30:26 437.325
MOZHAYETS 4 26 Mar 04:28:21 04:32:33 35° 264° (W) 04:36:46
Oscar 19 26 Mar 04:40:49 04:43:43 15° 305° (NW) 04:46:37 437.125/150
ISS 26 Mar 04:42:54 04:44:43 14° 224° (SW) 04:46:30 437.550
ITAMSAT 1 26 Mar 04:45:38 04:50:53 88° 104° (ESE) 04:56:05 435.822/435.867
Tancredo 1 26 Mar 04:45:56 04:47:02 11° 226° (SW) 04:48:07 437.200
AO-7 26 Mar 04:47:44 04:55:59 63° 104° (ESE) 05:04:11 .
Gurwin Techsat 1B 26 Mar 04:50:17 04:54:10 21° 302° (WNW) 04:58:02 435.225
STARS 26 Mar 04:50:47 04:55:04 50° 70° (ENE) 04:59:23 437.465
AO-85 26 Mar 04:50:48 04:54:07 25° 38° (NE) 04:57:27 145.980
CUBESAT XI-V 26 Mar 05:18:39 05:23:10 59° 259° (W) 05:27:44 437.345
M-CUBED/EXP-1 PRIME 26 Mar 05:22:42 05:25:54 27° 59° (ENE) 05:29:22 437.505
KKS-1 26 Mar 05:50:44 05:54:12 22° 267° (W) 05:57:41 437.445
BEESAT 3 26 Mar 05:52:05 05:54:47 17° 31° (NNE) 05:57:27 437.485
STRAND 1 26 Mar 06:00:41 06:03:50 17° 56° (NE) 06:06:58 437.568
DOVE 4 26 Mar 06:05:15 06:09:08 20° 89° (E) 06:12:58 437.250
BEESAT 2 26 Mar 06:06:56 06:08:58 13° 26° (NNE) 06:10:58 435.950
YUBILEINY 26 Mar 06:17:29 06:21:10 13° 70° (ENE) 06:24:51 435.215
ITAMSAT 1 26 Mar 06:26:28 06:29:40 17° 305° (NW) 06:32:51 435.822/435.867
STARS 26 Mar 06:28:28 06:31:41 20° 268° (W) 06:34:56 437.465
AO-85 26 Mar 06:30:55 06:34:41 46° 238° (WSW) 06:38:31 145.980
CUTE-I 26 Mar 06:32:28 06:36:35 22° 91° (E) 06:40:39 437.470
AO-7 26 Mar 06:41:00 06:48:24 38° 306° (NW) 06:55:46 .
XW-2F 26 Mar 06:50:29 06:53:46 28° 95° (E) 06:57:00 145.980 - 146.000
LilacSat-2 26 Mar 06:51:01 06:54:24 31° 96° (E) 06:57:46 437.200
M-CUBED/EXP-1 PRIME 26 Mar 06:56:54 07:00:16 31° 259° (W) 07:03:54 437.505
XW-2D 26 Mar 07:15:53 07:19:36 59° 101° (E) 07:23:18 145.860 - 145.880
NUDT-PHONESAT 26 Mar 07:16:58 07:20:33 47° 99° (E) 07:24:05 437.300
HO-68 26 Mar 07:17:26 07:21:49 17° 86° (E) 07:26:10 435.675
XW-2B 26 Mar 07:21:47 07:25:33 67° 102° (ESE) 07:29:16 145.730 - 145.750
KAITUO 1B 26 Mar 07:23:41 07:27:21 57° 101° (E) 07:30:59 145.475/437.950
BEESAT 3 26 Mar 07:28:57 07:33:01 82° 53° (NE) 07:37:01 437.485
XW-2C 26 Mar 07:31:57 07:35:44 89° 99° (E) 07:39:28 145.795 - 145.815
XW-2A 26 Mar 07:36:21 07:38:08 13° 91° (E) 07:39:53 145.665 - 145.685
STRAND 1 26 Mar 07:37:10 07:42:20 87° 255° (WSW) 07:47:32 437.568
DOVE 4 26 Mar 07:41:58 07:47:15 66° 287° (WNW) 07:52:28 437.250
CUTE 1.7 + AOD 2 26 Mar 07:42:19 07:44:59 16° 90° (E) 07:47:39 437.475
BEESAT 2 26 Mar 07:43:39 07:47:38 51° 47° (NE) 07:51:35 435.950
NO-84 26 Mar 08:06:37 08:09:24 49° 143° (SE) 08:12:12 435.350 FM
YUBILEINY 26 Mar 08:07:31 08:16:04 63° 92° (E) 08:24:38 435.215
CUTE-I 26 Mar 08:11:45 08:17:02 60° 290° (WNW) 08:22:17 437.470
UWE-3 26 Mar 08:24:37 08:26:45 13° 87° (E) 08:28:51 435.000/436.395/437.385
XW-2F 26 Mar 08:24:44 08:27:50 25° 293° (WNW) 08:30:55 145.980 - 146.000
LilacSat-2 26 Mar 08:25:33 08:28:34 23° 294° (WNW) 08:31:36 437.200
AO-7 26 Mar 08:35:56 08:38:50 12° 330° (NNW) 08:41:45 .
FO-29 26 Mar 08:37:18 08:41:52 18° 50° (NE) 08:46:15 435.910
XW-2D 26 Mar 08:51:25 08:53:22 14° 299° (WNW) 08:55:18 145.860 - 145.880
NUDT-PHONESAT 26 Mar 08:51:51 08:54:08 16° 297° (WNW) 08:56:25 437.300
CUBEBUG 2 26 Mar 08:56:05 09:00:21 43° 98° (E) 09:04:27 437.445
AAUSAT CUBESAT 2 26 Mar 08:56:20 09:00:03 31° 96° (E) 09:03:45 437.432
XW-2B 26 Mar 08:57:37 08:59:14 12° 300° (WNW) 09:00:51 145.730 - 145.750
KAITUO 1B 26 Mar 08:59:01 09:00:56 14° 298° (WNW) 09:02:50 145.475/437.950
Oscar 11 26 Mar 08:59:04 09:01:27 14° 89° (E) 09:03:49 .
HO-68 26 Mar 09:03:25 09:10:39 81° 106° (ESE) 09:17:50 435.675
ZACube-1 26 Mar 09:05:20 09:08:32 20° 92° (E) 09:11:40 437.345
XW-2A 26 Mar 09:07:53 09:11:08 42° 288° (WNW) 09:14:20 145.665 - 145.685
BEESAT 3 26 Mar 09:08:16 09:10:00 13° 250° (WSW) 09:11:45 437.485
SEEDS 26 Mar 09:10:40 09:14:52 87° 97° (E) 09:19:05 437.485
PRISM 26 Mar 09:16:37 09:20:27 41° 69° (ENE) 09:24:19 437.425
CUTE 1.7 + AOD 2 26 Mar 09:17:02 09:21:10 55° 288° (WNW) 09:25:17 437.475
PCSat 26 Mar 09:19:51 09:23:24 18° 106° (ESE) 09:26:58 145.827
STRAND 1 26 Mar 09:19:59 09:22:16 13° 273° (W) 09:24:34 437.568
DOVE 4 26 Mar 09:21:49 09:23:57 12° 306° (NW) 09:26:05 437.250
BEESAT 2 26 Mar 09:22:03 09:25:06 21° 246° (WSW) 09:28:09 435.950
AO-73 26 Mar 09:33:26 09:37:21 35° 96° (E) 09:41:10 145.935
NO-84 26 Mar 09:44:28 09:47:02 29° 343° (NNW) 09:49:42 435.350 FM
TIGRISAT 26 Mar 09:49:17 09:53:45 45° 70° (ENE) 09:58:11 435.000
CUTE-I 26 Mar 09:54:20 09:56:01 11° 310° (NW) 09:57:43 437.470
UNISAT 6 26 Mar 09:59:12 10:03:49 59° 72° (ENE) 10:08:24 437.425
UWE-3 26 Mar 09:59:24 10:03:45 69° 286° (WNW) 10:07:57 435.000/436.395/437.385
YUBILEINY 26 Mar 10:05:37 10:13:26 35° 295° (WNW) 10:21:16 435.215
FO-29 26 Mar 10:18:04 10:25:45 65° 70° (ENE) 10:32:54 435.910
DELFI C3 26 Mar 10:18:21 10:21:50 29° 95° (E) 10:25:19 145.870
AIST 2D 26 Mar 10:19:34 10:20:56 12° 61° (ENE) 10:22:19 435.315
NANOSAT C BR1 26 Mar 10:30:54 10:32:40 12° 57° (ENE) 10:34:26 145.865
AAUSAT CUBESAT 2 26 Mar 10:31:55 10:35:27 28° 293° (WNW) 10:38:58 437.432
CUBEBUG 2 26 Mar 10:33:12 10:36:43 23° 297° (WNW) 10:40:08 437.445
Oscar 11 26 Mar 10:33:46 10:38:02 65° 287° (WNW) 10:42:17 .
EO-79 26 Mar 10:34:40 10:37:00 15° 59° (ENE) 10:39:21 145.935-145.965
ZACube-1 26 Mar 10:40:59 10:45:02 43° 290° (WNW) 10:48:59 437.345
SEEDS 26 Mar 10:48:19 10:49:56 12° 302° (WNW) 10:51:34 437.485
HO-68 26 Mar 10:52:01 10:57:40 26° 307° (NW) 11:03:19 435.675
PRISM 26 Mar 10:52:52 10:55:55 20° 267° (W) 10:59:01 437.425
PCSat 26 Mar 11:00:42 11:06:08 81° 305° (NW) 11:11:37 145.827
POLYITAN 1 26 Mar 11:01:19 11:04:50 25° 64° (ENE) 11:08:20 437.675
QB50P2 26 Mar 11:05:41 11:09:23 29° 66° (ENE) 11:13:06 145.880/145.840
AO-73 26 Mar 11:09:57 11:13:27 25° 295° (WNW) 11:16:53 145.935
ESTCUBE 1 26 Mar 11:17:20 11:17:48 10° 86° (E) 11:18:17 437.505/2401.250
DUCHIFAT 1 26 Mar 11:18:09 11:21:52 30° 66° (ENE) 11:25:36 145.980
NO-84 26 Mar 11:22:52 11:25:13 21° 5° (N) 11:27:40 435.350 FM
TIGRISAT 26 Mar 11:26:49 11:30:37 24° 267° (W) 11:34:24 435.000
BUGSAT 1 26 Mar 11:35:59 11:38:53 18° 61° (ENE) 11:41:48 437.445
UNISAT 6 26 Mar 11:37:39 11:40:53 18° 270° (W) 11:44:07 437.425
AIST 2D 26 Mar 11:50:11 11:53:41 62° 258° (WSW) 11:57:13 435.315
RS-15 26 Mar 11:50:44 11:59:45 26° 100° (E) 12:08:54 29.354- 29.394
DELFI C3 26 Mar 11:53:10 11:56:35 28° 293° (WNW) 12:00:00 145.870
LO-87 26 Mar 11:56:29 12:00:01 44° 99° (E) 12:03:31 145.935 - 145.965
NANOSAT C BR1 26 Mar 12:03:27 12:07:44 88° 256° (WSW) 12:12:02 145.865
FO-29 26 Mar 12:04:21 12:11:07 32° 268° (W) 12:17:33 435.910
EO-79 26 Mar 12:07:56 12:12:13 74° 258° (WSW) 12:16:32 145.935-145.965
AO-7 26 Mar 12:15:03 12:16:30 11° 26° (NNE) 12:17:57 .
VELOX 1 26 Mar 12:28:26 12:31:29 18° 91° (E) 12:34:29 145.980
POLYITAN 1 26 Mar 12:36:26 12:40:27 38° 262° (W) 12:44:28 437.675
QB50P2 26 Mar 12:41:16 12:45:07 32° 264° (W) 12:48:59 145.880/145.840
Oscar 19 26 Mar 12:42:03 12:46:29 31° 63° (ENE) 12:50:57 437.125/150
PCSat 26 Mar 12:46:16 12:50:23 21° 327° (NNW) 12:54:31 145.827
ESTCUBE 1 26 Mar 12:50:47 12:55:19 85° 105° (ESE) 12:59:50 437.505/2401.250
DUCHIFAT 1 26 Mar 12:53:44 12:57:30 30° 264° (W) 13:01:18 145.980
50 SAT 26 Mar 12:54:07 12:56:30 17° 93° (E) 12:58:52 437.505
Gurwin Techsat 1B 26 Mar 12:55:35 12:59:54 26° 61° (ENE) 13:04:13 435.225
NO-84 26 Mar 13:00:19 13:03:16 46° 25° (NNE) 13:06:26 435.350 FM
BUGSAT 1 26 Mar 13:09:41 13:13:51 55° 259° (W) 13:18:04 437.445
SPROUT 26 Mar 13:12:58 13:17:03 41° 98° (E) 13:21:06 437.525
LO-87 26 Mar 13:30:47 13:33:10 17° 297° (WNW) 13:35:31 145.935 - 145.965
DX 1 26 Mar 13:41:17 13:45:26 38° 98° (E) 13:49:32 434.975-435.025
RS-15 26 Mar 13:58:17 14:10:21 82° 124° (SE) 14:22:48 29.354- 29.394
AO-7 26 Mar 13:59:39 14:06:41 32° 51° (NE) 14:13:42 .
VELOX 1 26 Mar 14:03:53 14:08:17 56° 289° (WNW) 14:12:38 145.980
Oscar 19 26 Mar 14:20:51 14:25:40 41° 262° (W) 14:30:32 437.125/150
UKube-1 26 Mar 14:21:25 14:25:47 71° 104° (ESE) 14:30:06 .
50 SAT 26 Mar 14:26:26 14:29:41 36° 290° (WNW) 14:32:56 437.505
ITAMSAT 1 26 Mar 14:28:41 14:33:13 31° 63° (ENE) 14:37:45 435.822/435.867
ESTCUBE 1 26 Mar 14:29:10 14:31:30 14° 302° (WNW) 14:33:49 437.505/2401.250
Gurwin Techsat 1B 26 Mar 14:34:20 14:39:32 54° 260° (W) 14:44:46 435.225
PCSat 26 Mar 14:35:03 14:36:00 10° 353° (N) 14:36:58 145.827
NO-84 26 Mar 14:37:55 14:40:44 29° 222° (SW) 14:43:45 435.350 FM
ITUPSAT 1 26 Mar 14:43:24 14:44:42 11° 86° (E) 14:46:01 437.325
SPROUT 26 Mar 14:49:21 14:52:45 23° 296° (WNW) 14:56:07 437.525
SO-50 26 Mar 15:06:44 15:10:52 33° 118° (ESE) 15:14:59 436.795
DX 1 26 Mar 15:17:49 15:21:27 26° 296° (WNW) 15:25:04 434.975-435.025
AO-7 26 Mar 15:50:28 15:58:48 76° 253° (WSW) 16:07:10 .
UKube-1 26 Mar 15:58:45 16:01:18 16° 301° (WNW) 16:03:51 .
BEESAT 26 Mar 16:02:15 16:06:59 61° 101° (ESE) 16:11:41 436.000
ITAMSAT 1 26 Mar 16:07:34 16:12:32 43° 261° (W) 16:17:32 435.822/435.867
RS-15 26 Mar 16:12:32 16:24:12 47° 332° (NNW) 16:36:03 29.354- 29.394
ITUPSAT 1 26 Mar 16:18:29 16:23:18 84° 106° (ESE) 16:28:03 437.325
MOZHAYETS 4 26 Mar 16:19:11 16:23:31 41° 98° (E) 16:27:48
PCSat 26 Mar 16:19:24 16:22:00 13° 20° (NNE) 16:24:36 145.827
SO-50 26 Mar 16:46:52 16:51:16 42° 317° (NW) 16:55:38 436.795
CUBESAT XI-V 26 Mar 17:11:40 17:15:36 26° 94° (E) 17:19:31 437.345
DOVE 4 26 Mar 17:13:56 17:17:54 27° 63° (ENE) 17:22:06 437.250
XW-2F 26 Mar 17:34:55 17:38:00 24° 66° (ENE) 17:41:05 145.980 - 146.000
LilacSat-2 26 Mar 17:36:17 17:39:33 27° 67° (ENE) 17:42:47 437.200
KKS-1 26 Mar 17:36:38 17:41:04 55° 101° (E) 17:45:27 437.445
BEESAT 26 Mar 17:40:56 17:44:21 20° 300° (WNW) 17:47:44 436.000
O/OREOS (USA 219) 26 Mar 17:45:18 17:49:49 76° 113° (ESE) 17:54:25 437.305
AO-7 26 Mar 17:47:47 17:52:57 18° 273° (W) 17:58:09 .
HO-68 26 Mar 17:50:30 17:55:38 22° 50° (NE) 18:00:45 435.675
MOZHAYETS 4 26 Mar 17:56:44 18:00:29 26° 296° (WNW) 18:04:13
CUTE-I 26 Mar 17:57:24 18:02:34 50° 68° (ENE) 18:07:46 437.470
ITUPSAT 1 26 Mar 17:57:45 18:00:29 15° 304° (WNW) 18:03:11 437.325
NUDT-PHONESAT 26 Mar 17:59:35 18:03:02 36° 70° (ENE) 18:06:30 437.300
XW-2D 26 Mar 18:00:15 18:03:54 47° 72° (ENE) 18:07:34 145.860 - 145.880
PCSat 26 Mar 18:02:00 18:07:02 37° 44° (NE) 18:12:03 145.827
XW-2B 26 Mar 18:06:08 18:09:50 53° 73° (ENE) 18:13:33 145.730 - 145.750
KAITUO 1B 26 Mar 18:06:54 18:10:28 44° 71° (ENE) 18:14:02 145.475/437.950
STARS 26 Mar 18:12:32 18:16:56 58° 101° (E) 18:21:17 437.465
YUBILEINY 26 Mar 18:13:10 18:21:09 38° 67° (ENE) 18:29:05 435.215
XW-2C 26 Mar 18:16:14 18:20:01 71° 75° (ENE) 18:23:49 145.795 - 145.815
RS-15 26 Mar 18:29:22 18:40:33 37° 6° (N) 18:51:35 29.354- 29.394
SO-50 26 Mar 18:30:30 18:32:55 14° 340° (NNW) 18:35:18 436.795
M-CUBED/EXP-1 PRIME 26 Mar 18:32:28 18:34:50 14° 94° (E) 18:37:12 437.505
SEEDS 26 Mar 18:32:59 18:34:29 12° 58° (ENE) 18:35:59 437.485
CUTE 1.7 + AOD 2 26 Mar 18:38:24 18:41:23 19° 63° (ENE) 18:44:22 437.475
CUBESAT XI-V 26 Mar 18:48:45 18:53:05 40° 292° (WNW) 18:57:26 437.345
DOVE 4 26 Mar 18:50:49 18:55:21 45° 263° (W) 19:00:11 437.250
XW-2F 26 Mar 19:08:40 19:12:03 30° 264° (W) 19:15:26 145.980 - 146.000
LilacSat-2 26 Mar 19:10:28 19:13:46 27° 265° (W) 19:17:05 437.200
KKS-1 26 Mar 19:14:00 19:17:15 20° 299° (WNW) 19:20:30 437.445
UWE-3 26 Mar 19:24:16 19:27:36 20° 62° (ENE) 19:30:53 435.000/436.395/437.385
O/OREOS (USA 219) 26 Mar 19:26:41 19:29:48 18° 314° (NW) 19:32:57 437.305
NUDT-PHONESAT 26 Mar 19:34:21 19:37:06 19° 267° (W) 19:39:51 437.300
HO-68 26 Mar 19:35:15 19:42:24 84° 72° (ENE) 19:49:37 435.675
XW-2D 26 Mar 19:36:02 19:38:22 16° 269° (W) 19:40:43 145.860 - 145.880
CUTE-I 26 Mar 19:38:23 19:42:52 27° 267° (W) 19:47:23 437.470
XW-2A 26 Mar 19:42:03 19:45:30 76° 258° (WSW) 19:48:58 145.665 - 145.685
XW-2B 26 Mar 19:42:19 19:44:22 14° 270° (W) 19:46:24 145.730 - 145.750
KAITUO 1B 26 Mar 19:42:20 19:44:43 16° 269° (W) 19:47:06 145.475/437.950
STRAND 1 26 Mar 19:44:35 19:48:44 24° 93° (E) 19:52:51 437.568
PCSat 26 Mar 19:45:23 19:50:35 46° 244° (WSW) 19:55:44 145.827
AAUSAT CUBESAT 2 26 Mar 19:49:43 19:53:23 32° 68° (ENE) 19:57:04 437.432
STARS 26 Mar 19:49:47 19:52:52 19° 300° (WNW) 19:55:56 437.465
XW-2C 26 Mar 19:53:48 19:54:41 11° 272° (W) 19:55:35 145.795 - 145.815
CUBEBUG 2 26 Mar 19:56:44 20:01:23 57° 72° (ENE) 20:06:00 437.445
Oscar 11 26 Mar 19:57:08 20:00:07 19° 62° (ENE) 20:03:06 .
ZACube-1 26 Mar 20:04:00 20:07:49 27° 66° (ENE) 20:11:35 437.345
M-CUBED/EXP-1 PRIME 26 Mar 20:05:08 20:09:47 84° 291° (WNW) 20:14:27 437.505
SEEDS 26 Mar 20:05:22 20:09:32 88° 260° (W) 20:13:43 437.485
YUBILEINY 26 Mar 20:09:55 20:18:22 58° 269° (W) 20:26:49 435.215
CUTE 1.7 + AOD 2 26 Mar 20:12:48 20:16:53 50° 261° (W) 20:21:00 437.475
SO-50 26 Mar 20:15:15 20:15:23 10° 5° (N) 20:15:30 436.795
AO-73 26 Mar 20:31:41 20:35:59 44° 70° (ENE) 20:40:13 145.935
RS-15 26 Mar 20:44:03 20:56:17 58° 38° (NE) 21:08:04 29.354- 29.394
AO-85 26 Mar 20:49:07 20:52:23 21° 115° (ESE) 20:55:30 145.980
UWE-3 26 Mar 20:59:03 21:03:39 58° 260° (W) 21:08:13 435.000/436.395/437.385
DELFI C3 26 Mar 21:07:15 21:10:33 27° 67° (ENE) 21:13:55 145.870
Tancredo 1 26 Mar 21:22:39 21:25:24 28° 143° (SE) 21:28:12 437.200
STRAND 1 26 Mar 21:23:15 21:28:12 50° 291° (WNW) 21:33:07 437.568
ISS 26 Mar 21:23:46 21:26:35 27° 142° (SE) 21:29:24 437.550
AAUSAT CUBESAT 2 26 Mar 21:25:27 21:28:53 26° 266° (W) 21:32:21 437.432
HO-68 26 Mar 21:25:46 21:30:59 21° 271° (W) 21:36:14 435.675
Oscar 11 26 Mar 21:31:38 21:35:53 55° 260° (W) 21:40:07 .
CUBEBUG 2 26 Mar 21:34:53 21:38:19 20° 270° (W) 21:41:45 437.445
ZACube-1 26 Mar 21:39:43 21:43:57 38° 263° (W) 21:48:08 437.345
M-CUBED/EXP-1 PRIME 26 Mar 21:41:01 21:43:33 15° 308° (NW) 21:46:06 437.505
